Location: Gradaro
(45.0833°N, 10.8833°E)
Time: 23:37:44
(UTC+00:00)

Cosmos 2263 Rocket - Pass Details

Date: 28 April 2021
Orbit: 824 x 848 km, 71.0° (Epoch: 15 May)

Event Time Altitude Azimuth Distance (km) Brightness Sun altitude
Rises 18:46:06 0° 154° (SSE) 3,345 4.8 -5.3°
Reaches altitude 10° 18:49:28 10° 133° (SE) 2,418 4.0 -5.8°
Maximum altitude 18:52:39 16° 98° (E) 2,047 3.6 -6.3°
Drops below altitude 10° 18:55:50 10° 63° (ENE) 2,431 4.3 -6.8°
Sets 18:59:13 0° 42° (NE) 3,373 5.2 -7.3°
